Simultaneous Nadir Overpasses (SNOs) Predictions

Prediction of SNOs near US between AQUA and NPP Satellite Orbit:

Table of predicted SNOs near US for the next 10.0 days since TLE Epoch: 2/12/2022
Index Date (AQUA) Time (AQUA) AQUA Lat,Lon Date (NPP) Time (NPP) NPP Lat,Lon Distance(km) Time Diff (sec)
1 02/12/2022 19:06:45 49.96, -92.39 02/12/2022 19:01:21 49.64, -94.34 144.64 324
2 02/12/2022 20:45:38 49.96,-117.11 02/12/2022 20:42:49 49.53,-119.67 189.99 169
3 02/15/2022 10:12:39 25.86,-124.99 02/15/2022 10:05:56 25.97,-125.88 90.18 403
4 02/18/2022 07:18:59 49.90, -75.73 02/18/2022 07:20:21 50.36, -78.14 179.73 82
5 02/18/2022 08:57:52 49.89,-100.45 02/18/2022 09:01:49 50.47,-103.47 224.28 237
6 02/20/2022 18:17:03 49.95, -79.94 02/20/2022 18:10:38 49.65, -81.68 129.09 385
7 02/20/2022 19:55:56 49.95,-104.66 02/20/2022 19:52:06 49.54,-107.00 174.44 230
